TimeEST,TemperatureF,Dew PointF,Humidity,Sea Level PressureIn,VisibilityMPH,Wind Direction,Wind SpeedMPH,Gust SpeedMPH,PrecipitationIn,Events,Conditions,WindDirDegrees,DateUTC
12:54 AM,25.0,17.1,72,30.24,10.0,West,4.6,-,N/A,,Overcast,270,2012-11-24 05:54:00
1:10 AM,24.8,17.6,74,30.21,10.0,West,4.6,-,N/A,,Overcast,270,2012-11-24 06:10:00
1:54 AM,26.1,18.0,71,30.24,10.0,West,5.8,-,N/A,,Overcast,280,2012-11-24 06:54:00
2:54 AM,26.1,17.1,69,30.24,10.0,NW,6.9,-,N/A,,Overcast,310,2012-11-24 07:54:00
3:54 AM,26.1,16.0,66,30.25,10.0,WNW,9.2,-,N/A,,Overcast,290,2012-11-24 08:54:00
4:54 AM,26.1,16.0,66,30.25,10.0,North,9.2,-,N/A,,Overcast,350,2012-11-24 09:54:00
5:54 AM,26.1,16.0,66,30.26,10.0,NNW,5.8,-,N/A,,Overcast,340,2012-11-24 10:54:00
6:54 AM,26.1,16.0,66,30.26,10.0,NNW,5.8,-,N/A,,Overcast,340,2012-11-24 11:54:00
7:54 AM,26.1,16.0,66,30.27,10.0,NW,4.6,-,N/A,,Overcast,320,2012-11-24 12:54:00
8:54 AM,27.0,17.1,66,30.27,10.0,Calm,Calm,-,N/A,,Overcast,0,2012-11-24 13:54:00
9:22 AM,26.6,15.8,64,30.25,10.0,WNW,9.2,-,N/A,,Overcast,290,2012-11-24 14:22:00
9:54 AM,27.0,15.1,61,30.28,10.0,WNW,10.4,-,N/A,,Overcast,300,2012-11-24 14:54:00
10:54 AM,28.9,16.0,58,30.29,10.0,NW,8.1,-,N/A,,Overcast,310,2012-11-24 15:54:00
11:54 AM,30.0,17.1,59,30.29,10.0,West,8.1,-,N/A,,Overcast,280,2012-11-24 16:54:00
12:54 PM,30.0,18.0,61,30.26,10.0,Variable,6.9,-,N/A,,Overcast,0,2012-11-24 17:54:00
1:54 PM,28.9,17.1,61,30.25,10.0,WSW,5.8,-,N/A,,Overcast,250,2012-11-24 18:54:00
2:01 PM,28.4,17.6,64,30.23,10.0,WNW,8.1,-,N/A,,Overcast,290,2012-11-24 19:01:00
2:54 PM,30.0,18.0,61,30.23,10.0,Variable,3.5,-,N/A,,Mostly Cloudy,0,2012-11-24 19:54:00
3:07 PM,30.2,17.6,60,30.20,10.0,WSW,9.2,-,N/A,,Overcast,240,2012-11-24 20:07:00
3:54 PM,30.0,17.1,59,30.22,10.0,WSW,6.9,-,N/A,,Mostly Cloudy,240,2012-11-24 20:54:00
4:50 PM,30.2,17.6,60,30.18,10.0,Calm,Calm,-,N/A,,Mostly Cloudy,0,2012-11-24 21:50:00
4:54 PM,30.0,18.0,61,30.20,10.0,WSW,4.6,-,N/A,,Scattered Clouds,240,2012-11-24 21:54:00
5:54 PM,28.0,17.1,63,30.19,10.0,Calm,Calm,-,N/A,,Partly Cloudy,0,2012-11-24 22:54:00
6:54 PM,27.0,18.0,69,30.19,10.0,Calm,Calm,-,N/A,,Partly Cloudy,0,2012-11-24 23:54:00
7:54 PM,26.1,19.0,75,30.17,10.0,SSW,4.6,-,N/A,,Clear,200,2012-11-25 00:54:00
8:54 PM,25.0,19.0,78,30.15,10.0,SW,5.8,-,N/A,,Clear,220,2012-11-25 01:54:00
9:54 PM,26.1,19.9,78,30.13,10.0,SSW,5.8,-,N/A,,Clear,200,2012-11-25 02:54:00
10:54 PM,26.1,19.9,78,30.10,10.0,SSW,5.8,-,N/A,,Mostly Cloudy,200,2012-11-25 03:54:00
11:54 PM,27.0,19.9,75,30.08,10.0,South,5.8,-,N/A,,Partly Cloudy,180,2012-11-25 04:54:00